sat.trackr.live / text

‹ back to catalog

SYRACUSE 3A

NORAD 28885 · 2005-041B

PAYLOAD ACTIVE UNKNOWN

§ Identity

Operator
Country
FR
Launch date
2005-10-13
Launch site
FRGUI
Launch vehicle
Mass (kg)
RCS (m²)
23.58

Purposes: comms

External: N2YO · Heavens-Above · Gunter

§ Orbital elements

Epoch: 2026-05-25T00:32:30.524064Z

Period
1,435.98 min
Inclination
4.5849°
Eccentricity
0.0003244
Mean motion
1.00279911 rev/d
Perigee alt
35,770.6 km
Apogee alt
35,798.0 km
Semi-major
42,162.5 km
B*
0.0000e+0
RAAN
76.1161°
Arg perigee
340.5803°
Mean anomaly
240.3851°
Rev number
7,551

§ Raw data

SYRACUSE 3A1 28885U 05041B   26145.02257551  .00000128  00000+0  00000+0 0  99952 28885   4.5849  76.1161 0003244 340.5803 240.3851  1.00279911 75512

JSON: /api/v1/satellites/28885 · /tle

For live sub-satellite position, see the globe view (requires WebGL).

§ Visibility from observer

Set your observer location to see the next 7 days of passes ≥ 10°. The values pass through the URL so the page stays shareable.

No JS? Fill the form by hand. The geolocation button needs JavaScript.